Tracking 18980 objects as of 18-Feb-2018
HD Live streaming from Space Station
objects crossing your sky now

NOAA 16 DEB

Track NOAA 16 DEB now!
10-day predictions


NORAD ID: 41077
Int'l Code: 2000-055AL
Perigee: 846.5 km
Apogee: 1,017.1 km
Inclination: 99.1 °
Period: 103.5 minutes
Semi major axis: 7302 km
RCS: Unknown
Launch date: September 21, 2000
Source: United States (US)
Launch site: AIR FORCE WESTERN TEST RANGE (AFWTR)

Note: This is SATELLITE DEBRIS
aabbcc
Your satellite tracking list
Your tracking list is empty




NASA's NSSDC Master Catalog

Two Line Element Set (TLE):
1 41077U 00055AL  18048.16524272  .00000213  00000-0  19366-3 0  9993
2 41077  99.1336 119.6241 0116783 210.2933 149.1440 13.91125089113032
Source of the keplerian elements: AFSPC